Location: Coupvray
(48.8929°N, 2.7967°E)
Time: 19:29:54
(UTC+00:00)

Helios 1B rocket - Pass Details

Date: 14 July 2020
Orbit: 574 x 584 km, 98.1° (Epoch: 14 August)

Event Time Altitude Azimuth Distance (km) Brightness Sun altitude
Rises 00:25:54 0° 15° (NNE) 2,811 7.6 -19.1°
Reaches altitude 10° 00:28:04 10° 16° (NNE) 1,905 6.3 -19.1°
Maximum altitude 00:32:12 80° 103° (ESE) 594 2.4 -19.0°
Enters shadow 00:33:20 47° 182° (S) 772 2.6 -18.9°
